Location: Deer Lodge Site
(39.6809°N, 119.9392°W)
Time: 06:11:30
(UTC-07:00)

Amateur Radio Satellites - All Passes

Search period start: 01 April 2015 05:41
Search period end: 02 April 2015 05:41
Location: Deer Lodge Site, 39.6809°N, 119.9392°W

Satellite Date Start Highest point End Downlink Frequencies (MHz)
Time Altitude Azimuth
STRAND 1 01 Apr 05:45:12 05:47:47 14° 63° (ENE) 05:50:37 437.568
AIST 1 01 Apr 05:49:43 05:50:10 10° 294° (WNW) 05:50:21
PHONESAT 2.4 01 Apr 06:08:02 06:11:32 66° 164° (SSE) 06:15:03 2401.200-2431.200
AUBIESAT-1 01 Apr 06:11:04 06:14:43 31° 260° (W) 06:18:38 437.475
JAS-2 01 Apr 06:18:01 06:25:08 41° 293° (WNW) 06:31:36 435.910
AO-7 01 Apr 06:24:39 06:32:24 44° 296° (WNW) 06:40:03 29.400- 29.500
PRISM 01 Apr 06:27:32 06:31:35 48° 73° (ENE) 06:35:41 437.425
VERMONT LUNAR 01 Apr 06:39:39 06:43:00 75° 358° (N) 06:46:21 437.305
M-CUBED/EXP-1 PRIME 01 Apr 06:40:07 06:42:22 14° 267° (W) 06:44:29 437.505
CUTE-I 01 Apr 06:41:04 06:45:45 31° 96° (E) 06:50:28 437.470
Cubesat XI-IV 01 Apr 06:42:10 06:46:54 33° 96° (E) 06:51:40 437.490
GONETS M04 01 Apr 06:49:37 06:58:31 81° 82° (E) 07:07:23
DANDE 01 Apr 06:55:40 06:58:24 16° 74° (ENE) 07:01:48 436.750
CUBESAT XI-V 01 Apr 06:57:06 07:01:47 66° 260° (W) 07:06:29 437.345
RS-15 01 Apr 07:06:54 07:12:51 14° 260° (W) 07:17:45 29.354- 29.394
STRAND 1 01 Apr 07:21:20 07:26:28 72° 257° (WSW) 07:31:38 437.568
CUSAT 1 01 Apr 07:28:18 07:32:47 46° 79° (ENE) 07:38:44 437.405
PHONESAT 2.4 01 Apr 07:46:22 07:49:54 75° 0° (N) 07:53:26 2401.200-2431.200
PRISM 01 Apr 08:05:11 08:07:24 13° 270° (W) 08:09:25 437.425
VERMONT LUNAR 01 Apr 08:17:23 08:20:44 74° 196° (SSW) 08:24:05 437.305
CUTE-I 01 Apr 08:21:07 08:25:49 32° 292° (WNW) 08:30:24 437.470
Cubesat XI-IV 01 Apr 08:22:19 08:26:58 31° 292° (WNW) 08:31:31 437.490
BRITE-PL 01 Apr 08:25:08 08:27:52 17° 92° (E) 08:30:50 437.365/2234.400
DANDE 01 Apr 08:37:22 08:41:40 50° 262° (W) 08:47:24 436.750
BEESAT 2 01 Apr 08:41:31 08:42:23 11° 109° (ESE) 08:43:30 435.950
HO-68 01 Apr 08:44:05 08:49:36 24° 92° (E) 08:55:21 435.675
GONETS M04 01 Apr 08:48:24 08:54:26 20° 279° (W) 09:00:01
CANX-2 01 Apr 08:51:58 08:55:02 19° 92° (E) 08:58:13 2200.000
GOMX 1 01 Apr 08:54:59 08:58:29 24° 95° (E) 09:02:14 467.674
CUTE 1.7 + AOD 2 01 Apr 09:05:05 09:08:35 24° 94° (E) 09:12:08 437.475
BEESAT 3 01 Apr 09:11:51 09:15:22 29° 114° (ESE) 09:18:58 437.485
CUSAT 1 01 Apr 09:11:56 09:15:35 20° 265° (W) 09:19:42 437.405
AAUSAT CUBESAT 2 01 Apr 09:17:32 09:20:33 19° 92° (E) 09:23:41 437.432
CINEMA 3 01 Apr 09:22:16 09:25:07 17° 92° (E) 09:28:12 145.822/145.860
PHONESAT 2.4 01 Apr 09:24:44 09:28:15 64° 197° (SSW) 09:31:45 2401.200-2431.200
SEEDS 01 Apr 09:29:08 09:33:08 37° 97° (E) 09:37:08 437.485
COMPASS 1 01 Apr 09:46:31 09:50:39 48° 99° (E) 09:54:46 437.405
VERMONT LUNAR 01 Apr 09:55:31 09:58:07 21° 209° (SSW) 10:00:41 437.305
BRITE-PL 01 Apr 10:02:38 10:06:37 39° 287° (WNW) 10:10:45 437.365/2234.400
DOVE 4 01 Apr 10:05:28 10:09:53 86° 279° (W) 10:14:33 437.250
Oscar 11 01 Apr 10:06:32 10:10:28 32° 96° (E) 10:14:24 145.826/435.025
UNISAT 6 01 Apr 10:07:15 10:10:52 28° 70° (ENE) 10:14:37 437.425
QB50P1 01 Apr 10:07:30 10:09:44 15° 66° (ENE) 10:12:09 145.935-145.965
DUCHIFAT 1 01 Apr 10:07:30 10:09:39 14° 66° (ENE) 10:11:58 145.980
AIST 2 01 Apr 10:09:15 10:13:05 35° 115° (ESE) 10:17:02 435.215
DELFI C3 01 Apr 10:11:52 10:15:23 27° 95° (E) 10:18:55 145.870
TIGRISAT 01 Apr 10:15:43 10:19:31 33° 71° (ENE) 10:23:27 435.000
BEESAT 2 01 Apr 10:15:57 10:20:03 66° 303° (WNW) 10:24:12 435.950
QB50P2 01 Apr 10:22:28 10:25:39 22° 69° (ENE) 10:28:56 145.880/145.840
FUNcube-1 01 Apr 10:23:38 10:27:22 26° 95° (E) 10:31:12 145.935
CANX-2 01 Apr 10:27:10 10:31:07 35° 288° (WNW) 10:35:00 2200.000
HO-68 01 Apr 10:30:46 10:37:52 62° 290° (WNW) 10:44:54 435.675
BUGSAT 1 01 Apr 10:32:22 10:35:16 19° 68° (ENE) 10:38:14 437.445
GOMX 1 01 Apr 10:32:52 10:36:41 29° 288° (WNW) 10:40:35 467.674
UWE-3 01 Apr 10:36:12 10:40:30 46° 99° (E) 10:44:55 435.000/436.395/437.385
ZACube-1 01 Apr 10:37:31 10:41:39 38° 98° (E) 10:45:53 437.345
CUTE 1.7 + AOD 2 01 Apr 10:40:48 10:44:30 27° 290° (WNW) 10:48:07 437.475
ANTELSAT 01 Apr 10:47:15 10:51:31 81° 77° (ENE) 10:55:53 437.575/2403.000
VELOX 1 01 Apr 10:47:18 10:49:36 14° 90° (E) 10:52:06 145.980
CUBEBUG 2 01 Apr 10:48:03 10:52:32 78° 102° (ESE) 10:57:09 437.445
POPSAT HIP 1 01 Apr 10:49:36 10:53:34 41° 73° (ENE) 10:57:33 437.405
BEESAT 3 01 Apr 10:49:54 10:53:25 26° 311° (NW) 10:56:55 437.485
AAUSAT CUBESAT 2 01 Apr 10:52:28 10:56:18 33° 288° (WNW) 11:00:04 437.432
AISAT 01 Apr 10:52:59 10:55:51 17° 92° (E) 10:58:52 437.250
CINEMA 3 01 Apr 10:58:17 11:02:33 44° 287° (WNW) 11:06:59 145.822/145.860
NANOSAT C BR1 01 Apr 10:58:38 11:02:44 53° 74° (ENE) 11:06:51 145.865
HUMSAT D 01 Apr 11:02:22 11:06:17 35° 97° (E) 11:10:15 437.325/437.525
PHONESAT 2.4 01 Apr 11:03:47 11:06:13 17° 212° (SSW) 11:08:36 2401.200-2431.200
SEEDS 01 Apr 11:05:42 11:08:42 18° 292° (WNW) 11:11:35 437.485
POLYITAN 1 01 Apr 11:05:51 11:10:01 67° 75° (ENE) 11:14:13 437.675
50 SAT 01 Apr 11:10:42 11:14:08 27° 95° (E) 11:17:38 437.505
UKube-1 01 Apr 11:13:56 11:18:15 65° 101° (E) 11:22:32 .
COMPASS 1 01 Apr 11:23:35 11:25:59 14° 294° (WNW) 11:28:13 437.405
DX 1 01 Apr 11:28:37 11:32:58 81° 284° (WNW) 11:37:17 434.975-435.025
ESTCUBE 1 01 Apr 11:33:09 11:36:48 24° 94° (E) 11:40:30 437.505/2401.250
DUCHIFAT 1 01 Apr 11:41:03 11:45:08 48° 261° (W) 11:49:13 145.980
QB50P1 01 Apr 11:41:12 11:45:17 47° 261° (W) 11:49:21 145.935-145.965
Oscar 11 01 Apr 11:43:06 11:46:30 22° 291° (WNW) 11:49:46 145.826/435.025
UNISAT 6 01 Apr 11:44:13 11:47:42 23° 266° (W) 11:51:09 437.425
DELFI C3 01 Apr 11:47:12 11:50:26 22° 291° (WNW) 11:53:34 145.870
AIST 2 01 Apr 11:48:15 11:51:47 24° 312° (NW) 11:55:18 435.215
TIGRISAT 01 Apr 11:53:17 11:56:26 19° 268° (W) 11:59:30 435.000
QB50P2 01 Apr 11:57:40 12:01:26 30° 264° (W) 12:05:09 145.880/145.840
FUNcube-1 01 Apr 11:59:54 12:03:40 27° 290° (WNW) 12:07:25 145.935
BUGSAT 1 01 Apr 12:06:47 12:10:34 33° 263° (W) 12:14:17 437.445
SPROUT 01 Apr 12:09:51 12:11:53 13° 90° (E) 12:14:08 437.525
CUBEBUG 1 01 Apr 12:12:16 12:16:33 59° 100° (E) 12:20:48 437.445
UWE-3 01 Apr 12:13:50 12:16:45 17° 293° (WNW) 12:19:33 435.000/436.395/437.385
ZACube-1 01 Apr 12:14:34 12:17:48 20° 292° (WNW) 12:20:57 437.345
HO-68 01 Apr 12:21:56 12:24:20 12° 308° (NW) 12:26:19 435.675
VELOX 1 01 Apr 12:22:15 12:26:31 48° 287° (WNW) 12:30:44 145.980
Oscar 19 01 Apr 12:24:15 12:27:19 17° 64° (ENE) 12:30:36 437.125/150
POPSAT HIP 1 01 Apr 12:27:08 12:29:42 15° 269° (W) 12:32:07 437.405
CUBEBUG 2 01 Apr 12:27:39 12:28:45 11° 295° (WNW) 12:29:35 437.445
AISAT 01 Apr 12:28:32 12:32:40 40° 288° (WNW) 12:36:47 437.250
NANOSAT C BR1 01 Apr 12:37:16 12:38:59 12° 271° (W) 12:40:29 145.865
HUMSAT D 01 Apr 12:38:42 12:41:51 20° 291° (WNW) 12:44:54 437.325/437.525
50 SAT 01 Apr 12:45:45 12:48:56 22° 290° (WNW) 12:52:03 437.505
UKube-1 01 Apr 12:52:17 12:53:55 12° 296° (WNW) 12:55:20 .
O/OREOS (USA 219) 01 Apr 13:06:11 13:10:16 32° 61° (ENE) 13:14:20 437.305
Gurwin Techsat 1B 01 Apr 13:08:27 13:10:02 12° 61° (ENE) 13:11:54 435.225
ESTCUBE 1 01 Apr 13:09:45 13:13:42 30° 290° (WNW) 13:17:34 437.505/2401.250
TISAT 1 01 Apr 13:21:02 13:25:15 74° 102° (ESE) 13:29:26 437.305
ITUPSAT 1 01 Apr 13:22:28 13:23:25 11° 87° (E) 13:24:41 437.325
YUBILEINY 01 Apr 13:34:46 13:43:22 63° 92° (E) 13:52:05 435.215
ITAMSAT 1 01 Apr 13:36:02 13:40:14 26° 67° (ENE) 13:44:33 435.822/435.867
SPROUT 01 Apr 13:44:10 13:48:20 49° 286° (WNW) 13:52:27 437.525
AO-7 01 Apr 13:44:39 13:46:34 11° 46° (NE) 13:49:02 29.400- 29.500
PCSat 01 Apr 13:47:48 13:52:42 37° 111° (ESE) 13:57:42 145.827
CUBEBUG 1 01 Apr 13:50:30 13:52:29 13° 295° (WNW) 13:54:16 437.445
Oscar 19 01 Apr 14:01:12 14:06:14 60° 259° (W) 14:11:20 437.125/150
SWISSCUBE 01 Apr 14:05:57 14:10:20 36° 97° (E) 14:14:44 437.505
BEESAT 01 Apr 14:08:18 14:12:40 35° 97° (E) 14:17:02 436.000
AIST 1 01 Apr 14:16:57 14:19:28 16° 70° (ENE) 14:22:08
HORYU 2 01 Apr 14:34:04 14:36:25 15° 65° (ENE) 14:38:59 437.375
Gurwin Techsat 1B 01 Apr 14:43:59 14:49:19 88° 76° (ENE) 14:54:40 435.225
JAS-2 01 Apr 14:45:15 14:49:46 19° 57° (ENE) 14:54:49 435.910
O/OREOS (USA 219) 01 Apr 14:45:56 14:49:33 23° 257° (WSW) 14:53:02 437.305
ITUPSAT 1 01 Apr 14:57:10 15:01:58 74° 284° (WNW) 15:06:43 437.325
KKS-1 01 Apr 14:57:50 15:01:08 21° 93° (E) 15:04:34 437.445
JUGNU 01 Apr 15:12:00 15:12:34 10° 183° (S) 15:13:07 437.505
ITAMSAT 1 01 Apr 15:14:44 15:19:36 38° 263° (W) 15:24:25 435.822/435.867
STARS 01 Apr 15:21:22 15:24:53 24° 94° (E) 15:28:29 437.465
AO-7 01 Apr 15:29:46 15:37:41 53° 66° (ENE) 15:45:40 29.400- 29.500
PCSat 01 Apr 15:31:22 15:36:11 31° 309° (NW) 15:40:59 145.827
YUBILEINY 01 Apr 15:33:31 15:40:55 28° 293° (WNW) 15:48:07 435.215
SWISSCUBE 01 Apr 15:44:13 15:48:02 23° 293° (WNW) 15:51:43 437.505
BEESAT 01 Apr 15:46:30 15:50:22 24° 293° (WNW) 15:54:06 436.000
AIST 1 01 Apr 15:53:22 15:57:24 40° 267° (W) 16:01:23
HORYU 2 01 Apr 16:08:22 16:12:41 53° 260° (W) 16:17:04 437.375
SRMSAT 01 Apr 16:17:37 16:18:34 10° 180° (S) 16:19:30 437.500
JAS-2 01 Apr 16:26:43 16:33:45 88° 76° (ENE) 16:41:32 435.910
Gurwin Techsat 1B 01 Apr 16:29:10 16:30:08 10° 274° (W) 16:30:41 435.225
KKS-1 01 Apr 16:33:51 16:37:54 34° 289° (WNW) 16:41:54 437.445
STARS 01 Apr 16:57:31 17:01:23 30° 290° (WNW) 17:05:11 437.465
MOZHAYETS 4 01 Apr 16:58:00 17:01:46 25° 93° (E) 17:05:36
RS-15 01 Apr 17:05:45 17:12:10 19° 102° (ESE) 17:19:22 29.354- 29.394
AO-7 01 Apr 17:23:22 17:30:48 34° 264° (W) 17:38:04 29.400- 29.500
SO-50 01 Apr 17:31:00 17:34:31 23° 112° (ESE) 17:38:15 436.795
BEESAT 3 01 Apr 17:31:56 17:34:37 17° 44° (NE) 17:37:22 437.485
AUBIESAT-1 01 Apr 17:53:08 17:56:54 23° 97° (E) 18:00:40 437.475
GONETS M04 01 Apr 17:56:55 18:01:59 18° 80° (E) 18:07:34
CUTE-I 01 Apr 18:01:59 18:07:06 48° 72° (ENE) 18:12:15 437.470
Cubesat XI-IV 01 Apr 18:03:14 18:08:23 50° 72° (ENE) 18:13:35 437.490
JAS-2 01 Apr 18:15:30 18:20:00 17° 276° (W) 18:24:17 435.910
M-CUBED/EXP-1 PRIME 01 Apr 18:20:08 18:24:51 50° 103° (ESE) 18:29:25 437.505
AIST 2 01 Apr 18:32:05 18:35:18 21° 46° (NE) 18:38:33 435.215
MOZHAYETS 4 01 Apr 18:34:55 18:39:03 31° 290° (WNW) 18:43:05
BEESAT 2 01 Apr 18:36:15 18:40:21 57° 56° (NE) 18:44:22 435.950
CUBESAT XI-V 01 Apr 18:55:03 18:59:11 32° 96° (E) 19:03:20 437.345
BEESAT 3 01 Apr 19:09:00 19:13:00 51° 243° (WSW) 19:16:56 437.485
SO-50 01 Apr 19:10:26 19:14:50 41° 309° (NW) 19:19:22 436.795
RS-15 01 Apr 19:12:14 19:23:08 86° 120° (ESE) 19:34:15 29.354- 29.394
HO-68 01 Apr 19:13:30 19:17:53 18° 57° (ENE) 19:22:35 435.675
AUBIESAT-1 01 Apr 19:27:22 19:31:50 38° 294° (WNW) 19:36:07 437.475
STRAND 1 01 Apr 19:32:55 19:37:43 41° 98° (E) 19:42:32 437.568
BRITE-PL 01 Apr 19:35:48 19:38:56 19° 69° (ENE) 19:42:04 437.365/2234.400
CUTE-I 01 Apr 19:43:28 19:47:29 21° 268° (W) 19:51:21 437.470
Cubesat XI-IV 01 Apr 19:44:54 19:48:51 20° 269° (W) 19:52:36 437.490
CANX-2 01 Apr 19:45:32 19:47:30 13° 66° (ENE) 19:49:40 2200.000
PRISM 01 Apr 19:46:11 19:50:22 89° 285° (WNW) 19:54:30 437.425
GONETS M04 01 Apr 19:49:05 19:57:49 86° 279° (W) 20:06:37
M-CUBED/EXP-1 PRIME 01 Apr 19:55:51 19:59:21 20° 299° (WNW) 20:02:39 437.505
CUTE 1.7 + AOD 2 01 Apr 19:58:09 20:00:47 17° 67° (ENE) 20:03:35 437.475
GOMX 1 01 Apr 20:03:11 20:06:35 23° 70° (ENE) 20:09:58 467.674
AAUSAT CUBESAT 2 01 Apr 20:09:09 20:10:56 13° 66° (ENE) 20:12:56 437.432
AIST 2 01 Apr 20:10:05 20:14:05 41° 244° (WSW) 20:18:01 435.215
BEESAT 2 01 Apr 20:16:17 20:18:03 12° 251° (WSW) 20:19:37 435.950
SEEDS 01 Apr 20:20:57 20:24:20 24° 70° (ENE) 20:27:50 437.485
CINEMA 3 01 Apr 20:24:59 20:26:48 13° 66° (ENE) 20:28:49 145.822/145.860
CUBESAT XI-V 01 Apr 20:32:46 20:36:30 24° 292° (WNW) 20:40:07 437.345
ISS 01 Apr 20:33:14 20:34:40 13° 130° (SE) 20:36:13 145.825
COMPASS 1 01 Apr 20:37:20 20:40:58 30° 71° (ENE) 20:44:42 437.405
CUSAT 1 01 Apr 20:39:24 20:41:58 39° 98° (E) 20:44:27 437.405
HO-68 01 Apr 20:57:36 21:04:48 88° 254° (WSW) 21:12:03 435.675
DELFI C3 01 Apr 20:59:49 21:02:21 17° 68° (ENE) 21:05:02 145.870
Oscar 11 01 Apr 21:00:59 21:04:23 24° 69° (ENE) 21:07:53 145.826/435.025
DOVE 4 01 Apr 21:10:43 21:15:01 87° 77° (ENE) 21:19:12 437.250
STRAND 1 01 Apr 21:12:41 21:16:42 23° 294° (WNW) 21:20:36 437.568
BRITE-PL 01 Apr 21:13:01 21:17:19 37° 262° (W) 21:21:22 437.365/2234.400
CANX-2 01 Apr 21:18:53 21:23:02 53° 260° (W) 21:27:14 2200.000
FUNcube-1 01 Apr 21:19:45 21:22:33 18° 68° (ENE) 21:25:29 145.935
RS-15 01 Apr 21:27:35 21:37:05 32° 327° (NNW) 21:46:38 29.354- 29.394
CUTE 1.7 + AOD 2 01 Apr 21:32:25 21:36:26 41° 262° (W) 21:40:29 437.475
UWE-3 01 Apr 21:33:11 21:36:51 32° 71° (ENE) 21:40:36 435.000/436.395/437.385
ZACube-1 01 Apr 21:33:26 21:36:52 26° 70° (ENE) 21:40:24 437.345
GOMX 1 01 Apr 21:40:49 21:44:40 28° 264° (W) 21:48:19 467.674
AAUSAT CUBESAT 2 01 Apr 21:42:04 21:46:10 54° 260° (W) 21:50:17 437.432
VELOX 1 01 Apr 21:45:11 21:47:06 13° 65° (ENE) 21:49:14 145.980
CUBEBUG 2 01 Apr 21:45:53 21:49:55 56° 74° (ENE) 21:54:01 437.445
GONETS M04 01 Apr 21:50:41 21:56:16 17° 300° (WNW) 22:01:21
AISAT 01 Apr 21:50:54 21:53:25 16° 66° (ENE) 21:56:07 437.250
DANDE 01 Apr 21:53:10 21:55:05 16° 285° (WNW) 21:56:51 436.750
HUMSAT D 01 Apr 21:54:12 21:57:21 22° 69° (ENE) 22:00:37 437.325/437.525
SEEDS 01 Apr 21:56:28 22:00:05 26° 266° (W) 22:03:39 437.485
50 SAT 01 Apr 21:57:12 21:59:23 15° 67° (ENE) 22:01:45 437.505
CINEMA 3 01 Apr 21:59:36 22:03:40 50° 261° (W) 22:07:43 145.822/145.860
ISS 01 Apr 22:07:29 22:10:43 64° 324° (NW) 22:13:58 145.825
UKube-1 01 Apr 22:07:59 22:12:09 49° 73° (ENE) 22:16:22 .
COMPASS 1 01 Apr 22:13:28 22:16:44 21° 267° (W) 22:19:54 437.405
DX 1 01 Apr 22:23:11 22:27:33 79° 76° (ENE) 22:31:55 434.975-435.025
ESTCUBE 1 01 Apr 22:32:25 22:35:50 22° 68° (ENE) 22:39:22 437.505/2401.250
DELFI C3 01 Apr 22:33:27 22:37:15 38° 263° (W) 22:41:05 145.870
PCSat 01 Apr 22:36:25 22:40:59 27° 49° (NE) 22:45:36 145.827
Oscar 11 01 Apr 22:36:41 22:40:28 29° 265° (W) 22:44:14 145.826/435.025
ANTELSAT 01 Apr 22:40:47 22:44:00 19° 92° (E) 22:47:24 437.575/2403.000
HO-68 01 Apr 22:49:46 22:53:38 14° 273° (W) 22:57:02 435.675
POLYITAN 1 01 Apr 22:54:24 22:55:49 12° 89° (E) 22:57:29 437.675
FUNcube-1 01 Apr 22:54:53 22:58:41 34° 263° (W) 23:02:30 145.935
SPROUT 01 Apr 23:05:22 23:05:54 10° 64° (ENE) 23:06:41 437.525
CUBEBUG 1 01 Apr 23:07:35 23:11:45 44° 73° (ENE) 23:15:57 437.445
ZACube-1 01 Apr 23:09:52 23:13:14 23° 266° (W) 23:16:34 437.345
UWE-3 01 Apr 23:10:31 23:13:32 19° 268° (W) 23:16:27 435.000/436.395/437.385
VELOX 1 01 Apr 23:18:50 23:23:13 60° 259° (WSW) 23:27:38 145.980
AISAT 01 Apr 23:25:22 23:29:41 49° 260° (W) 23:34:00 437.250
CUBEBUG 2 01 Apr 23:26:00 23:27:06 11° 272° (W) 23:27:57 437.445
DUCHIFAT 1 01 Apr 23:27:01 23:30:35 27° 95° (E) 23:34:13 145.980
QB50P1 01 Apr 23:27:26 23:31:04 28° 96° (E) 23:34:45 145.935-145.965
HUMSAT D 01 Apr 23:29:29 23:33:01 27° 265° (W) 23:36:33 437.325/437.525
50 SAT 01 Apr 23:30:20 23:34:00 38° 262° (W) 23:37:43 437.505
UNISAT 6 01 Apr 23:35:36 23:40:14 73° 102° (ESE) 23:44:55 437.425
QB50P2 01 Apr 23:43:22 23:47:26 43° 99° (E) 23:51:31 145.880/145.840
TIGRISAT 01 Apr 23:43:59 23:48:37 87° 105° (ESE) 23:53:19 435.000
ISS 01 Apr 23:45:39 23:47:38 15° 343° (NNW) 23:49:36 145.825
UKube-1 01 Apr 23:46:18 23:48:39 14° 270° (W) 23:50:47 .
YUBILEINY 01 Apr 23:46:34 23:53:54 30° 68° (ENE) 00:01:24 435.215
RS-15 01 Apr 23:47:21 23:54:30 18° 1° (N) 00:01:50 29.354- 29.394
BUGSAT 1 01 Apr 23:49:42 23:53:23 34° 97° (E) 23:57:05 437.445
ESTCUBE 1 02 Apr 00:08:21 00:12:32 35° 263° (W) 00:16:42 437.505/2401.250
POPSAT HIP 1 02 Apr 00:11:06 00:15:22 89° 284° (WNW) 00:19:37 437.405
TISAT 1 02 Apr 00:12:27 00:16:30 48° 74° (ENE) 00:20:35 437.305
ANTELSAT 02 Apr 00:16:38 00:20:59 41° 288° (WNW) 00:25:23 437.575/2403.000
PCSat 02 Apr 00:19:27 00:24:36 44° 248° (WSW) 00:29:41 145.827
NANOSAT C BR1 02 Apr 00:20:04 00:24:17 71° 285° (WNW) 00:28:30 145.865
POLYITAN 1 02 Apr 00:28:00 00:32:10 56° 286° (WNW) 00:36:20 437.675
ITUPSAT 1 02 Apr 00:28:22 00:30:27 13° 63° (ENE) 00:32:46 437.325
SPROUT 02 Apr 00:37:12 00:41:29 72° 258° (WSW) 00:45:46 437.525
CUBEBUG 1 02 Apr 00:45:37 00:48:23 16° 269° (W) 00:50:59 437.445
DUCHIFAT 1 02 Apr 01:02:54 01:06:21 24° 290° (WNW) 01:09:43 145.980
QB50P1 02 Apr 01:03:27 01:06:52 23° 291° (WNW) 01:10:11 145.935-145.965
SWISSCUBE 02 Apr 01:11:44 01:16:09 38° 71° (ENE) 01:20:37 437.505
BEESAT 02 Apr 01:14:01 01:18:23 37° 71° (ENE) 01:22:50 436.000
UNISAT 6 02 Apr 01:14:41 01:16:31 12° 296° (WNW) 01:18:07 437.425
QB50P2 02 Apr 01:20:22 01:23:02 16° 293° (WNW) 01:25:32 145.880/145.840
ISS 02 Apr 01:24:36 01:25:07 10° 3° (N) 01:25:39 145.825
BUGSAT 1 02 Apr 01:25:52 01:28:40 18° 292° (WNW) 01:31:20 437.445
YUBILEINY 02 Apr 01:42:44 01:51:21 60° 268° (W) 01:59:50 435.215
TISAT 1 02 Apr 01:50:32 01:52:39 13° 270° (W) 01:54:32 437.305
KKS-1 02 Apr 01:55:54 01:58:51 18° 67° (ENE) 02:01:56 437.445
RS-15 02 Apr 02:02:09 02:11:56 32° 34° (NE) 02:22:18 29.354- 29.394
SO-50 02 Apr 02:02:36 02:06:20 21° 43° (NE) 02:10:09 436.795
ITUPSAT 1 02 Apr 02:03:00 02:07:49 71° 258° (WSW) 02:12:39 437.325
Oscar 19 02 Apr 02:13:30 02:18:32 51° 99° (E) 02:23:36 437.125/150
STARS 02 Apr 02:18:11 02:21:16 20° 67° (ENE) 02:24:30 437.465
SWISSCUBE 02 Apr 02:50:26 02:54:10 22° 267° (W) 02:57:48 437.505
BEESAT 02 Apr 02:52:36 02:56:23 22° 267° (W) 03:00:03 436.000
ISS 02 Apr 02:59:59 03:02:29 20° 23° (NNE) 03:05:00 145.825
Gurwin Techsat 1B 02 Apr 03:01:19 03:06:13 37° 97° (E) 03:11:09 435.225
O/OREOS (USA 219) 02 Apr 03:17:16 03:21:36 43° 106° (ESE) 03:25:59 437.305
ITAMSAT 1 02 Apr 03:27:55 03:33:09 82° 105° (ESE) 03:38:19 435.822/435.867
KKS-1 02 Apr 03:31:01 03:35:13 41° 262° (W) 03:39:25 437.445
AO-7 02 Apr 03:34:19 03:38:38 16° 88° (E) 03:43:31 29.400- 29.500
JAS-2 02 Apr 03:40:21 03:44:07 15° 83° (E) 03:48:11 435.910
SO-50 02 Apr 03:42:25 03:47:17 58° 242° (WSW) 03:52:05 436.795
PHONESAT 2.4 02 Apr 03:52:17 03:54:22 15° 147° (SSE) 03:56:30 2401.200-2431.200
STARS 02 Apr 03:53:29 03:57:32 36° 263° (W) 04:01:34 437.465
Oscar 19 02 Apr 03:53:50 03:57:33 20° 295° (WNW) 04:01:08 437.125/150
MOZHAYETS 4 02 Apr 03:59:32 04:03:02 22° 68° (ENE) 04:06:39
HORYU 2 02 Apr 04:00:42 04:04:39 31° 96° (E) 04:08:41 437.375
VERMONT LUNAR 02 Apr 04:13:34 04:16:46 41° 157° (SSE) 04:19:56 437.305
RS-15 02 Apr 04:14:25 04:26:01 87° 238° (WSW) 04:38:06 29.354- 29.394
AIST 1 02 Apr 04:21:22 04:25:45 67° 279° (W) 04:30:08
ISS 02 Apr 04:35:56 04:39:08 61° 221° (SW) 04:42:19 145.825
AUBIESAT-1 02 Apr 04:40:31 04:43:56 25° 63° (ENE) 04:47:38 437.475
Gurwin Techsat 1B 02 Apr 04:41:37 04:46:04 27° 293° (WNW) 04:50:25 435.225
O/OREOS (USA 219) 02 Apr 04:57:54 05:01:17 19° 304° (NW) 05:04:33 437.305
M-CUBED/EXP-1 PRIME 02 Apr 05:07:52 05:11:54 54° 68° (ENE) 05:16:18 437.505
ITAMSAT 1 02 Apr 05:09:42 05:12:02 13° 299° (WNW) 05:14:06 435.822/435.867
JAS-2 02 Apr 05:22:46 05:30:29 88° 107° (ESE) 05:37:25 435.910
AO-7 02 Apr 05:24:24 05:32:45 85° 107° (ESE) 05:41:05 29.400- 29.500
PHONESAT 2.4 02 Apr 05:28:49 05:32:17 58° 162° (SSE) 05:35:46 2401.200-2431.200
